Regional Weather Roundup
Issued by NWS

Home | Current Version | Previous Version | Text Only | Print | Product List | Glossary On
Versions: 1 2 3 4 5 6 7 8 9 10 11 12 13 14 15 16 17 18 19 20 21 22 23 24 25 26 27 28 29 30 31 32 33 34 35 36 37 38 39 40 41 42 43 44 45 46 47 48 49 50
000
ASUS44 KEWX 031803
RWRTX
SOUTH TEXAS REGIONAL WEATHER ROUNDUP
NATIONAL WEATHER SERVICE AUSTIN/SAN ANTONIO TX
1200 PM CST SAT DEC 03 2016

NOTE: "FAIR" INDICATED FEW OR NO CLOUDS BELOW 12,000 FEET WITH NO
SIGNIFICANT WEATHER AND/OR OBSTRUCTIONS TO VISIBILITY.

* - THESE STATIONS ARE NOT NWS OR FAA STATIONS...AND ARE NOT SUBJECT
    TO NWS AND FAA QUALITY CONTROL.

TXZ171-172-183>190-031900-
TEXAS HILL COUNTRY AND EDWARDS PLATEAU

CITY           SKY/WX    TMP DP  RH WIND       PRES   REMARKS
JUNCTION       LGT RAIN  48  46  93 NE6       30.01R WCI  45
6HR MIN TEMP:  47; 6HR MAX TEMP:  48; 6HR PCP:  0.21;

*LLANO         LGT RAIN  48  48 100 NE6       30.05S WCI  46
BURNET         LGT RAIN  49  46  90 NE9       30.01F WCI  45
6HR MIN TEMP:  47; 6HR MAX TEMP:  49; 6HR PCP:  0.19;

*HORSESHOE BAY DRIZZLE   50  49  97 CALM      29.99F
6HR MIN TEMP:  47; 6HR MAX TEMP:  50; 6HR PCP:  0.30;

*KERRVILLE     RAIN      49  47  95 N6        29.97F WCI  46
6HR MIN TEMP:  46; 6HR MAX TEMP:  49; 6HR PCP:  0.47;

*FREDERICKSBRG RAIN      47  46  94 NE7       29.98F WCI  44
*ROCKSPRINGS   HVY RAIN  46  46 100 NE8       30.00R WCI  42
*BOERNE STAGE  CLOUDY    46  46 100 N9        29.98F WCI  42
*CASTROVILLE   CLOUDY    52  51  95 N7        29.97S
HONDO          LGT RAIN  54  52  93 N7        29.96R
6HR MIN TEMP:  52; 6HR MAX TEMP:  54; 6HR PCP:  0.06;

*UVALDE        DRIZZLE   55  54  97 CALM      29.95R
6HR MIN TEMP:  53; 6HR MAX TEMP:  55; 6HR PCP:  0.73;

DEL RIO        LGT RAIN  55  54  96 NE6       29.94F
6HR MIN TEMP:  55; 6HR MAX TEMP:  58; 6HR PCP:  0.25;

LAUGHLIN AFB   LGT RAIN  55  49  79 NE10      29.95F
6HR MIN TEMP:  55; 6HR MAX TEMP:  58; 6HR PCP:  0.21;

CARRIZO SPRGS  RAIN      54  54 100 N6        29.93S
*EAGLE PASS    PTCLDY    57  55  94 N6        29.93F FOG
$$

TXZ173-191>194-202-209-217>225-228-031900-
CENTRAL AND SOUTH CENTRAL TEXAS

CITY           SKY/WX    TMP DP  RH WIND       PRES   REMARKS
GEORGETOWN     LGT RAIN  50  46  87 N8        30.01S WCI  47
AUSTIN/BERGSTM RAIN      51  50  96 N7        30.00R FOG
6HR MIN TEMP:  50; 6HR MAX TEMP:  51; 6HR PCP:  0.53;

AUSTIN/MABRY   LGT RAIN  50  49  96 VRB6      30.01S WCI  48
6HR MIN TEMP:  49; 6HR MAX TEMP:  51; 6HR PCP:  0.43;

*AUSTIN/EXEC   LGT RAIN  50  50 100 N9        29.99F WCI  46
*LAGO VISTA    LGT RAIN  50  49  97 NE8       29.98F WCI  47
6HR MIN TEMP:  48; 6HR MAX TEMP:  50; 6HR PCP:  0.57;

SAN MARCOS     RAIN      54  48  82 N12       29.98S FOG
NEW BRAUNFELS  HVY RAIN  51  49  92 NE17      29.92F FOG
6HR MIN TEMP:  50; 6HR MAX TEMP:  51; 6HR PCP:  1.02;

RANDOLPH AFB   LGT RAIN  50  50 100 NE12      29.93F WCI  46
6HR MIN TEMP:  49; 6HR MAX TEMP:  50; 6HR PCP:  0.76;

PT SAN ANTONIO LGT RAIN  52  50  93 N15       29.91F
                                      6HR PCP:  0.33;

SAN ANTONIO    HVY RAIN  51  49  92 NE6       29.96S FOG
6HR MIN TEMP:  50; 6HR MAX TEMP:  52; 6HR PCP:  0.39;

STINSON FIELD  HVY RAIN  53  50  89 NE10      29.92S FOG
6HR MIN TEMP:  52; 6HR MAX TEMP:  53; 6HR PCP:  0.99;

*PLEASANTON    LGT RAIN  51  50  96 NE10G17   29.91F
6HR MIN TEMP:  51; 6HR MAX TEMP:  53;

*LA GRANGE     LGT RAIN  52  51  96 N5        29.93F
6HR MIN TEMP:  50; 6HR MAX TEMP:  53; 6HR PCP:  0.04;

*GIDDINGS      RAIN      50  49  97 N8        30.00F WCI  46
6HR MIN TEMP:  47; 6HR MAX TEMP:  50; 6HR PCP:  1.69;

*GONZALES      CLOUDY    51  51 100 N6G20     29.93F
$$

TXZ163>164-176>182-195>201-210>213-226-227-235-031900-
SOUTHEAST TEXAS

CITY           SKY/WX    TMP DP  RH WIND       PRES   REMARKS
COLLEGE STN    LGT RAIN  51  49  92 NE13      29.97F
6HR MIN TEMP:  49; 6HR MAX TEMP:  51; 6HR PCP:  0.70;

*BRYAN         NOT AVBL
*CALDWELL      NOT AVBL
*CROCKETT      LGT RAIN  48  46  93 E9G24     30.02S WCI  44
*BRENHAM       CLOUDY    53  52  96 N8        29.97F
HUNTSVILLE     CLOUDY    49  47  93 NE8       29.95F WCI  45
6HR MIN TEMP:  48; 6HR MAX TEMP:  49; 6HR PCP:  4.26;

CONROE         LGT RAIN  51  49  92 NE13G22   29.92F
6HR MIN TEMP:  49; 6HR MAX TEMP:  51; 6HR PCP:  1.33;

HOUSTON BUSH   NOT AVBL
HOUSTON HOBBY  CLOUDY    56  54  93 NE15      29.90F
6HR MIN TEMP:  56; 6HR MAX TEMP:  59; 6HR PCP:  0.14;

*HOUSTON SW AP CLOUDY    55  53  92 N13       29.90F
6HR MIN TEMP:  55; 6HR MAX TEMP:  58; 6HR PCP:  0.26;

PEARLAND       CLOUDY    59  55  87 N13       29.91F
6HR MIN TEMP:  58; 6HR MAX TEMP:  61; 6HR PCP:  0.63;

HOUSTON HOOKS  LGT RAIN  53  51  93 NE13G20   29.90F
6HR MIN TEMP:  51; 6HR MAX TEMP:  53; 6HR PCP:  0.54;

ELLINGTON FLD  CLOUDY    57  55  94 N12       29.91F
SUGAR LAND     CLOUDY    54  53  97 NE12G20   29.89F
6HR MIN TEMP:  52; 6HR MAX TEMP:  57; 6HR PCP: TRACE;

*HOUSTON EXEC    N/A     52  50  93 NE10      29.91F
*CLEVELAND MUN RAIN      52  50  94 N3        29.96F
6HR MIN TEMP:  49; 6HR MAX TEMP:  52; 6HR PCP:  0.10;

*WHARTON       CLOUDY    54  53  96 N8        29.90S
6HR MIN TEMP:  51; 6HR MAX TEMP:  55;

*COLUMBUS      CLOUDY    54  51  92 N10       29.94S
6HR MIN TEMP:  50; 6HR MAX TEMP:  54; 6HR PCP:  0.12;

*EAGLE LAKE    CLOUDY    56  55  97 N10G17    29.92S
6HR MIN TEMP:  52; 6HR MAX TEMP:  56; 6HR PCP:  0.31;

$$

TXZ214>216-236>238-031900-
THE UPPER TEXAS COAST

CITY           SKY/WX    TMP DP  RH WIND       PRES   REMARKS
*ORANGE        HVY RAIN N/A N/A N/A NE6       29.95R
                                      6HR PCP:  1.57;

PORT ARTHUR    HVY RAIN  54  53  97 NE17G24   29.90F FOG
6HR MIN TEMP:  54; 6HR MAX TEMP:  59; 6HR PCP:  3.11;

GALVESTON      TSTM      63  62  97 N26       29.87S VSB 1/2
6HR MIN TEMP:  63; 6HR MAX TEMP:  74; 6HR PCP:  2.36;

ANGLETON       CLOUDY    59  58  96 N14       29.89F
6HR MIN TEMP:  59; 6HR MAX TEMP:  64; 6HR PCP:  0.78;

*BAY CITY      CLOUDY    57  57  99 N8        29.89F
PALACIOS       LGT RAIN  58  55  90 N14       29.87F
6HR MIN TEMP:  53; 6HR MAX TEMP:  60; 6HR PCP:  0.01;

$$

TXZ229>234-239>247-031900-
TEXAS COASTAL BEND AND RIO GRANDE PLAINS

CITY           SKY/WX    TMP DP  RH WIND       PRES   REMARKS
VICTORIA       LGT RAIN  54  53  97 N12       29.90F
6HR MIN TEMP:  52; 6HR MAX TEMP:  55; 6HR PCP:  0.01;

*BEEVILLE      CLOUDY    56  56 100 N15       29.89F
6HR MIN TEMP:  50; 6HR MAX TEMP:  58; 6HR PCP:  0.01;

ROCKPORT         N/A    N/A N/A N/A MISG      29.86F
*PORT ARANSAS  CLOUDY    63  60  88 N13       29.85F
6HR MIN TEMP:  60; 6HR MAX TEMP:  63;

*PORT LAVACA   CLOUDY    57  56  97 N14       29.89S
6HR MIN TEMP:  53; 6HR MAX TEMP:  57; 6HR PCP:  0.04;

*INGLESIDE     CLOUDY    62  57  84 N15       29.85F
CORPUS CHRISTI CLOUDY    62  58  86 NE13      29.85F
6HR MIN TEMP:  60; 6HR MAX TEMP:  64; 6HR PCP: TRACE;

CORPUS NAS     CLOUDY    65  61  87 N12       29.84F
6HR MIN TEMP:  62; 6HR MAX TEMP:  66;

*ROBSTOWN      CLOUDY    66  59  78 NE10      29.86F
ALICE          CLOUDY    64  58  80 N13       29.84F
6HR MIN TEMP:  59; 6HR MAX TEMP:  64;

KINGSVILLE NAS CLOUDY    72  62  71 N10       29.83
6HR MIN TEMP:  64; 6HR MAX TEMP:  72;

COTULLA        LGT RAIN  55  52  89 NE9       29.90F
6HR MIN TEMP:  55; 6HR MAX TEMP:  57; 6HR PCP:  0.06;

*FAITH RANCH   CLOUDY    57  57 100 N8G14     29.92F
LAREDO         CLOUDY    58  57  97 NE12      29.88F FOG
6HR MIN TEMP:  56; 6HR MAX TEMP:  64; 6HR PCP:  0.01;

$$

TXZ248>255-031900-
DEEP SOUTH TEXAS

CITY           SKY/WX    TMP DP  RH WIND       PRES   REMARKS
BROWNSVILLE    CLOUDY    83  72  69 S23G29    29.81F
6HR MIN TEMP:  76; 6HR MAX TEMP:  83; 6HR PCP: TRACE;

PORT ISABEL    CLOUDY    82  72  71 S16G23    29.80F HAZE
6HR MIN TEMP:  74; 6HR MAX TEMP:  82;

*SOUTH PADRE     N/A     81  73  78 S14G23    29.82F
HARLINGEN      PTSUNNY   83  72  69 S24       29.78F
6HR MIN TEMP:  75; 6HR MAX TEMP:  83;

*HEBBRONVILLE  HVY RAIN  61  60  98 N8        29.86S VSB 1/2
6HR MIN TEMP:  47; 6HR MAX TEMP:  91;

MCALLEN        CLOUDY    82  71  69 VRB6      29.81F
*WESLACOC1F1C2F2C3F3C4F4C5F5C6F6C7M1C8M2C9!


USA.gov is the U.S. government's official web portal to all federal, state and local government web resources and services.